Showing default

EAGLET 1, 43790

Orbit data source: Space-Track

EAGLET 1, 43790 is a payload satellite owned by OHB-I (IT) in SSO that was launched on Mon, 03 Dec 2018 UTC via an FALCON 9 launch vehicle from the Air Force Western Test Range (AFWTR). Payload-class satellites include a variety of spacecraft equipped with specific instruments for various scientific and technological missions. These include communications satellites like Starlink; space stations such as the ISS; scientific satellites like the Hubble; Earth observation satellites from companies like Planet Labs, Umbra, and HawkEye 360; GPS; miniature CubeSats for education and research; and military/defense satellites.

Loading next visibility...
Identifier
43790, 2018-099AJ
Orbit
SSO
Last TLE update
18 hours ago
Origin
Manufacturer
OHB-I
Mission
Operational Commercial Technology
Bus & Motor
CUBESAT 3U, Unknown motor
Mass
5 kg wet, 5 kg dry
Launch date (UTC)
2018-12-03 (7 years ago)
Launch vehicle
FALCON 9
Launch site
Air Force Western Test Range (AFWTR)
Object type
Payload
Rocket body
Debris
Shape & HBR
Box + 2 Pan, 0.3 m
Radar Cross Section
0.035 m², Small (<0.1 m²)

Expand to show TLE details & history

TLE from 18 hours ago
0 EAGLET 1
1 43790U 18099AJ  25191.71324259  .00002327  00000-0  14981-3 0  9991
2 43790  97.4744 245.2267 0013561  84.6018 275.6757 15.09262558360765
Epoch: 2025-07-10T17:07Z
TLE epoch observation values (Epoch: 2025-07-10T17:07:04.159Z)
Latitude
-0.00012°
Longitude
59.58381°
Altitude
540.611 km
Speed
7.593 km/s
True Right ascension
16h 20m 54s
True Declination
0° 00' 00"
Sunlit
Object was in full shadow at epoch
Visualization orbit readout
Latitude
3.26815°
Longitude
-119.24708°
Altitude
541.892 km
Speed
7.591 km/s
Apparent Right ascension
07h 09m 59s
Apparent Declination
-27° 35' 11"
Sunlit
Object is in daylight
Visualization observer readout
Local Sidereal Time
23:42:00
Azimuth
99.814° ESE
Elevation
-33.489°
Doppler factor
1
Orbital elements
Apogee altitude
544.811 km
Perigee altitude
526.06 km
Semi-major axis
6,913.572 km
Eccentricity
0.00136
Inclination
97.4744°
RAAN
245.2267°
Arg. of periapsis
84.6018°
True anomaly
Unknown
Mean anomaly
275.6757°
Eccentric anomaly
Unknown
Mean motion
3.77563 °/min
Orbital period
95.35 mins
BSTAR
0.00014981
Loading maneuver chart data...
Loading SW <> Apogee altitude chart data...
Loading historical data...
Loading historical data...
Loading historical data...
Loading historical data...
Loading historical data...
Loading historical data...
Loading historical data...

EAGLET 1 Visibility forecast

Observer location: undefined°, undefined°

Span
Click to sort rows by Start time (UTC) header in descending order
Start Az.
Max El. time (UTC)
Max El. Az.
Max El.
End time (UTC)
End Az.
6 mins2025-07-11 15:57:58.232Z34.556° NE2025-07-11 16:00:58.232Z101.762° ESE30.355°2025-07-11 16:03:58.232Z162.733° S
4 mins2025-07-12 02:41:58.232Z96.476° ESE2025-07-12 02:42:58.232Z78.222° E16.806°2025-07-12 02:45:58.232Z25.85° NE
5 mins2025-07-12 04:15:58.232Z218.897° SW2025-07-12 04:17:58.232Z269.765° W26.033°2025-07-12 04:20:58.232Z324.115° NNW
|